Tracking 33208 objects as of 15-Feb-2026
HD Live streaming from Space Station
objects crossing your sky now

STARLINK-11513

Track STARLINK-11513 now!
10-day predictions
STARLINK-11513 is classified as:


NORAD ID: 62589
Int'l Code: 2025-008C
Perigee: 361.8 km
Apogee: 365.4 km
Inclination: 43.0 °
Period: 91.7 minutes
Semi major axis: 6734 km
RCS: Unknown
Launch date: January 13, 2025
Source: United States (US)
Launch site: AIR FORCE EASTERN TEST RANGE (AFETR)
Your satellite tracking list
Your tracking list is empty




NASA's NSSDC Master Catalog

Two Line Element Set (TLE):
1 62589U 25008C   26045.92738443  .00093167  00000-0  72109-3 0  9990
2 62589  42.9994 263.4336 0002632 294.1837  65.8756 15.70849685 62539
Source of the keplerian elements: AFSPC